User: anonymous   Login
Location: Newark
(37.8444°N, 127.0614°E)
Time: 01:42:16
(UTC+00:00)
Language:

QB50P2 - Orbit

View from above orbital plane
View from above orbital plane
View from above satellite
View from above satellite

Ground track
Ground track

The orbit data is extracted from the following two-line orbital elements,

1 40032U 14033Y   20021.42469797  .00000135  00000-0  20502-4 0  9995
2 40032  97.9027 303.5679 0013177  65.7494 294.5098 14.88586870303482
Epoch (UTC): 21 January 2020 10:11:33
Eccentricity: 0.0013177
inclination: 97.9027°
perigee height: 593 km
apogee height: 611 km
right ascension of ascending node: 303.5679°
argument of perigee: 65.7494°
revolutions per day: 14.88586870
mean anomaly at epoch: 294.5098°
orbit number at epoch: 30348

The dashed part of the orbit path shows where the satellite is in the earth's shadow,  

DLR